TimeEST,TemperatureF,Dew PointF,Humidity,Sea Level PressureIn,VisibilityMPH,Wind Direction,Wind SpeedMPH,Gust SpeedMPH,PrecipitationIn,Events,Conditions,WindDirDegrees,DateUTC
12:15 AM,28.0,22.1,78,29.79,10.0,WSW,13.8,-,N/A,,Overcast,240,2013-02-13 05:15:00
12:36 AM,27.7,22.3,80,29.78,10.0,WSW,15.0,-,N/A,,Overcast,240,2013-02-13 05:36:00
12:55 AM,27.9,22.1,79,29.78,10.0,SW,9.2,-,N/A,,Overcast,230,2013-02-13 05:55:00
1:16 AM,28.2,22.8,80,29.77,10.0,SW,12.7,19.6,N/A,,Mostly Cloudy,230,2013-02-13 06:16:00
1:35 AM,28.2,23.0,81,29.76,10.0,WSW,13.8,19.6,N/A,,Overcast,240,2013-02-13 06:35:00
1:55 AM,28.9,23.5,80,29.75,10.0,WSW,13.8,20.7,N/A,,Overcast,240,2013-02-13 06:55:00
2:16 AM,29.1,23.9,81,29.75,10.0,SW,11.5,-,N/A,,Overcast,230,2013-02-13 07:16:00
2:35 AM,29.3,24.4,82,29.74,10.0,SW,12.7,-,N/A,,Overcast,230,2013-02-13 07:35:00
2:55 AM,30.0,25.2,82,29.74,10.0,SW,11.5,18.4,N/A,,Overcast,230,2013-02-13 07:55:00
3:16 AM,30.7,26.1,83,29.73,10.0,SW,11.5,19.6,N/A,,Overcast,230,2013-02-13 08:16:00
3:35 AM,30.7,26.1,83,29.72,10.0,SW,13.8,-,N/A,,Overcast,230,2013-02-13 08:35:00
3:55 AM,30.7,26.2,83,29.72,10.0,SW,13.8,19.6,N/A,,Overcast,230,2013-02-13 08:55:00
4:16 AM,30.7,26.1,83,29.71,10.0,SW,11.5,-,N/A,,Overcast,230,2013-02-13 09:16:00
4:35 AM,30.0,25.5,83,29.71,10.0,SW,10.4,-,N/A,,Scattered Clouds,230,2013-02-13 09:35:00
4:56 AM,29.5,25.7,86,29.71,10.0,SW,10.4,-,N/A,,Scattered Clouds,230,2013-02-13 09:56:00
5:16 AM,29.3,25.7,86,29.70,10.0,SW,10.4,17.3,N/A,,Scattered Clouds,230,2013-02-13 10:16:00
5:35 AM,29.3,25.7,86,29.70,10.0,SW,12.7,17.3,N/A,,Scattered Clouds,230,2013-02-13 10:35:00
5:56 AM,30.2,26.4,86,29.69,10.0,SW,11.5,18.4,N/A,,Mostly Cloudy,230,2013-02-13 10:56:00
6:16 AM,30.7,27.0,86,29.68,10.0,SW,10.4,-,N/A,,Mostly Cloudy,230,2013-02-13 11:16:00
6:35 AM,30.4,26.8,86,29.68,10.0,WSW,12.7,-,N/A,,Scattered Clouds,240,2013-02-13 11:35:00
6:56 AM,30.7,27.3,87,29.68,10.0,WSW,12.7,19.6,N/A,,Overcast,240,2013-02-13 11:56:00
7:15 AM,30.9,27.5,87,29.68,10.0,SW,12.7,19.6,N/A,,Overcast,230,2013-02-13 12:15:00
7:36 AM,31.1,27.9,88,29.68,10.0,WSW,12.7,-,N/A,,Overcast,240,2013-02-13 12:36:00
7:56 AM,31.3,28.0,88,29.67,7.0,WSW,12.7,17.3,N/A,,Overcast,240,2013-02-13 12:56:00
8:15 AM,31.1,28.0,88,29.68,7.0,WSW,13.8,-,N/A,,Overcast,240,2013-02-13 13:15:00
8:36 AM,31.1,28.2,89,29.67,7.0,SW,11.5,17.3,N/A,,Overcast,220,2013-02-13 13:36:00
8:56 AM,31.5,28.0,87,29.67,7.0,SW,11.5,18.4,N/A,,Overcast,230,2013-02-13 13:56:00
9:15 AM,31.5,28.4,88,29.67,7.0,SW,11.5,18.4,N/A,,Overcast,230,2013-02-13 14:15:00
9:35 AM,31.5,28.6,89,29.66,7.0,SW,12.7,-,N/A,,Overcast,230,2013-02-13 14:35:00
9:56 AM,31.6,28.8,89,29.66,5.0,WSW,11.5,-,N/A,,Overcast,240,2013-02-13 14:56:00
10:15 AM,31.6,28.4,88,29.66,7.0,WSW,12.7,-,N/A,,Overcast,240,2013-02-13 15:15:00
10:35 AM,31.5,28.4,88,29.65,5.0,WSW,12.7,-,N/A,,Overcast,240,2013-02-13 15:35:00
10:56 AM,31.8,28.8,88,29.66,5.0,WSW,17.3,21.9,N/A,,Overcast,250,2013-02-13 15:56:00
11:15 AM,31.6,28.4,88,29.66,7.0,WSW,13.8,18.4,N/A,,Mostly Cloudy,240,2013-02-13 16:15:00
11:36 AM,32.0,28.4,87,29.66,7.0,WSW,13.8,17.3,N/A,,Mostly Cloudy,240,2013-02-13 16:36:00
11:56 AM,32.4,28.9,87,29.66,7.0,WSW,16.1,-,N/A,,Mostly Cloudy,250,2013-02-13 16:56:00
12:15 PM,32.0,28.2,86,29.66,5.0,WSW,16.1,19.6,N/A,,Overcast,240,2013-02-13 17:15:00
12:36 PM,32.0,28.4,87,29.65,7.0,WSW,16.1,19.6,N/A,,Mostly Cloudy,240,2013-02-13 17:36:00
12:55 PM,32.5,28.8,86,29.65,7.0,SW,16.1,21.9,N/A,,Overcast,230,2013-02-13 17:55:00
1:16 PM,32.0,28.4,87,29.64,7.0,SW,13.8,20.7,N/A,,Overcast,230,2013-02-13 18:16:00
1:36 PM,32.0,28.4,87,29.64,5.0,SW,11.5,-,N/A,,Overcast,230,2013-02-13 18:36:00
1:55 PM,32.0,28.9,88,29.64,7.0,WSW,15.0,19.6,N/A,,Overcast,240,2013-02-13 18:55:00
2:16 PM,32.0,28.9,88,29.64,7.0,WSW,12.7,18.4,N/A,,Overcast,240,2013-02-13 19:16:00
2:36 PM,32.0,28.9,88,29.64,7.0,WSW,15.0,20.7,N/A,,Overcast,240,2013-02-13 19:36:00
2:55 PM,32.4,29.3,88,29.63,7.0,SW,15.0,20.7,N/A,,Overcast,230,2013-02-13 19:55:00
3:16 PM,32.5,29.8,90,29.63,7.0,WSW,13.8,-,N/A,,Overcast,240,2013-02-13 20:16:00
3:35 PM,32.9,29.8,88,29.64,7.0,SW,11.5,-,N/A,,Overcast,230,2013-02-13 20:35:00
3:55 PM,32.9,30.0,89,29.64,5.0,SW,10.4,-,N/A,,Overcast,230,2013-02-13 20:55:00
4:16 PM,32.9,30.6,91,29.65,5.0,WSW,10.4,16.1,N/A,,Overcast,250,2013-02-13 21:16:00
4:35 PM,32.9,30.7,92,29.65,5.0,WSW,12.7,-,N/A,,Overcast,240,2013-02-13 21:35:00
4:55 PM,33.3,31.1,92,29.65,5.0,SW,11.5,-,N/A,,Overcast,230,2013-02-13 21:55:00
5:15 PM,33.1,30.7,91,29.64,7.0,SW,13.8,19.6,N/A,,Overcast,230,2013-02-13 22:15:00
5:35 PM,33.1,30.7,91,29.65,7.0,SW,9.2,-,N/A,,Overcast,230,2013-02-13 22:35:00
5:56 PM,33.1,30.7,91,29.64,7.0,SW,10.4,16.1,N/A,,Overcast,220,2013-02-13 22:56:00
6:15 PM,33.3,31.1,92,29.64,7.0,SW,12.7,16.1,N/A,,Overcast,220,2013-02-13 23:15:00
6:35 PM,33.4,31.3,92,29.64,7.0,SW,11.5,-,N/A,,Overcast,220,2013-02-13 23:35:00
6:56 PM,33.6,31.1,90,29.65,7.0,SW,10.4,-,N/A,,Overcast,220,2013-02-13 23:56:00
7:15 PM,33.8,31.1,90,29.64,7.0,SSW,9.2,-,N/A,,Overcast,210,2013-02-14 00:15:00
7:36 PM,33.8,31.1,90,29.65,7.0,SSW,11.5,-,N/A,,Overcast,210,2013-02-14 00:36:00
7:55 PM,33.8,31.1,90,29.65,10.0,SSW,8.1,-,N/A,,Overcast,210,2013-02-14 00:55:00
8:16 PM,33.8,30.9,89,29.65,10.0,SSW,6.9,-,N/A,,Overcast,210,2013-02-14 01:16:00
8:35 PM,33.8,31.1,90,29.65,10.0,South,5.8,-,N/A,,Overcast,190,2013-02-14 01:35:00
8:56 PM,33.8,31.3,90,29.65,7.0,South,4.6,-,N/A,,Overcast,190,2013-02-14 01:56:00
9:16 PM,33.8,31.8,92,29.65,7.0,SSW,6.9,-,N/A,,Overcast,200,2013-02-14 02:16:00
9:35 PM,34.2,32.0,92,29.65,7.0,SSW,8.1,-,N/A,,Overcast,210,2013-02-14 02:35:00
9:56 PM,34.2,32.0,92,29.65,7.0,South,6.9,-,N/A,,Overcast,190,2013-02-14 02:56:00
10:15 PM,34.2,32.0,92,29.65,7.0,SSW,10.4,-,N/A,,Overcast,210,2013-02-14 03:15:00
10:36 PM,34.3,32.0,91,29.65,7.0,SW,8.1,-,N/A,,Overcast,220,2013-02-14 03:36:00
10:56 PM,34.2,32.0,92,29.64,7.0,SW,6.9,-,N/A,,Overcast,220,2013-02-14 03:56:00
11:15 PM,33.8,31.5,91,29.63,7.0,SW,4.6,-,N/A,,Overcast,220,2013-02-14 04:15:00
11:36 PM,33.8,31.1,90,29.63,7.0,SSW,5.8,-,N/A,,Overcast,210,2013-02-14 04:36:00
11:55 PM,33.3,30.7,90,29.63,7.0,SW,5.8,-,N/A,,Mostly Cloudy,220,2013-02-14 04:55:00